Cullman, AL

12:34 PM CDT on July 27, 2017 (GMT -0500)
Cullman

Weather History for K3A1 - January, 2013

Change the Weather History Date:

Tuesday, January 1, 2013

  Actual Average (KHSV) Record (KHSV)
Temperature  
Mean Temperature 44 °F -  
Max Temperature 51 °F 48 °F 79 °F (1952)
Min Temperature 38 °F 30 °F 7 °F (1977)
Degree Days  
Heating Degree Days 20    
Moisture  
Dew Point 47 °F    
Average Humidity 97    
Maximum Humidity 100    
Minimum Humidity 78    
Precipitation  
Precipitation 1.49 in - - ()
Sea Level Pressure  
Sea Level Pressure 30.04 in    
Wind  
Wind Speed 6 mph (NNW)    
Max Wind Speed 12 mph    
Max Gust Speed 20 mph    
Visibility 6 miles    
Events Rain    
Averages and records for this station are not official NWS values.
T = Trace of Precipitation, MM = Missing Value Source: NWS Daily Summary

Daily Weather History Graph

Daily Weather History Graph

Search for Another Location

Airport or City:

Trip Planner

Search our weather history database for the weather conditions in past years. The results will help you decide how hot, cold, wet, or windy it might be!

Date:

Astronomy

Jan. 01, 2013 Rise Set
Actual Time 6:53 AM CST 4:48 PM CST
Civil Twilight 6:25 AM CST 5:16 PM CST
Nautical Twilight 5:54 AM CST 5:47 PM CST
Astronomical Twilight 5:24 AM CST 6:18 PM CST
Moon 9:06 PM CST (1/1) 9:16 AM CST (1/1)
Length of Visible Light 10h 50m
Length of Day
9h 55m
Waning Gibbous, 83% of the Moon is Illuminated
Jan 1
Waning Gibbous
Jan 4
Last Quarter
Jan 11
New
Jan 18
First Quarter
Jan 26
Full

Hourly Weather History & Observations

Time (CST) Temp. Windchill Dew Point Humidity Pressure Visibility Wind Dir Wind Speed Gust Speed Precip Events Conditions
12:15 AM 49.5 °F - 42.8 °F 78% 30.06 in 10.0 mi South 11.5 mph 17.3 mph N/A   Mostly Cloudy
12:35 AM 49.3 °F - 42.8 °F 78% 30.05 in 10.0 mi South 11.5 mph - N/A   Scattered Clouds
1:15 AM 49.5 °F - 43.0 °F 78% 30.04 in 10.0 mi South 10.4 mph - N/A   Scattered Clouds
1:35 AM 49.8 °F - 43.5 °F 79% 30.04 in 10.0 mi South 11.5 mph - N/A   Mostly Cloudy
1:55 AM 50.0 °F - 44.2 °F 81% 30.05 in 10.0 mi South 9.2 mph 16.1 mph N/A Rain Light Rain
2:15 AM 49.6 °F - 45.1 °F 84% 30.04 in 10.0 mi South 9.2 mph - N/A   Drizzle
2:35 AM 49.1 °F - 46.0 °F 89% 30.04 in 10.0 mi South 6.9 mph - N/A Rain Rain
2:55 AM 49.1 °F - 46.6 °F 91% 30.03 in 10.0 mi SSE 8.1 mph - 0.01 in   Light Drizzle
3:15 AM 49.3 °F - 46.8 °F 91% 30.04 in 10.0 mi South 5.8 mph - N/A   Light Drizzle
3:35 AM 49.3 °F - 47.1 °F 92% 30.06 in 7.0 mi NW 5.8 mph - N/A Rain Light Rain
3:55 AM 48.7 °F - 47.7 °F 96% 30.07 in 2.5 mi NNW 5.8 mph - 0.07 in Rain Heavy Rain
4:15 AM 48.4 °F - 47.8 °F 98% 30.08 in 2.5 mi NW 4.6 mph - 0.06 in Rain Heavy Rain
4:35 AM 47.8 °F - 47.3 °F 98% 30.08 in 2.5 mi Calm Calm - 0.13 in Rain Rain
4:55 AM 47.7 °F - 47.1 °F 98% 30.06 in 2.5 mi Calm Calm - 0.20 in Rain Heavy Rain
5:15 AM 47.5 °F - 47.1 °F 99% 30.05 in 2.5 mi SE 3.5 mph - 0.05 in Rain Heavy Rain
5:35 AM 47.5 °F - 47.3 °F 99% 30.07 in 3.0 mi Calm Calm - 0.12 in Rain Heavy Rain
5:55 AM 47.5 °F - 47.3 °F 99% 30.06 in 2.5 mi Calm Calm - 0.20 in Rain Heavy Rain
6:15 AM 47.3 °F - 47.3 °F 100% 30.06 in 4.0 mi Calm Calm - 0.04 in Rain Rain
6:35 AM 47.5 °F - 47.3 °F 99% 30.05 in 4.0 mi East 3.5 mph - 0.11 in Rain Rain
6:55 AM 47.5 °F - 47.3 °F 99% 30.04 in 5.0 mi East 4.6 mph - 0.17 in Rain Rain
7:15 AM 48.0 °F - 47.7 °F 99% 30.04 in 7.0 mi East 4.6 mph - 0.02 in Rain Rain
7:35 AM 48.2 °F - 48.0 °F 99% 30.05 in 3.0 mi Calm Calm - 0.06 in Rain Rain
7:55 AM 48.4 °F - 48.2 °F 99% 30.05 in 2.0 mi Calm Calm - 0.10 in Rain Rain
8:15 AM 48.4 °F - 48.2 °F 99% 30.05 in 2.5 mi Calm Calm - 0.02 in Rain Rain
8:35 AM 48.6 °F - 48.4 °F 99% 30.06 in 2.5 mi Calm Calm - 0.06 in Rain Rain
8:55 AM 48.7 °F - 48.6 °F 99% 30.06 in 2.5 mi Calm Calm - 0.10 in Rain Rain
9:15 AM 49.1 °F - 48.9 °F 99% 30.05 in 4.0 mi Calm Calm - 0.01 in Rain Light Rain
9:35 AM 49.3 °F - 49.1 °F 99% 30.06 in 5.0 mi Calm Calm - 0.03 in Rain Rain
9:55 AM 49.5 °F - 49.1 °F 99% 30.07 in 3.0 mi Calm Calm - 0.06 in Rain Rain
10:15 AM 49.6 °F - 49.3 °F 99% 30.07 in 4.0 mi Calm Calm - 0.02 in Rain Rain
10:35 AM 50.0 °F - 49.6 °F 99% 30.06 in 3.0 mi Calm Calm - 0.05 in Rain Rain
10:55 AM 50.2 °F - 50.0 °F 99% 30.06 in 4.0 mi Calm Calm - 0.08 in Rain Rain
11:15 AM 50.2 °F - 50.0 °F 99% 30.06 in 3.0 mi Calm Calm - 0.03 in Rain Rain
11:35 AM 50.4 °F - 50.0 °F 99% 30.04 in 3.0 mi Calm Calm - 0.07 in Rain Rain
11:55 AM 50.7 °F - 50.2 °F 98% 30.02 in 4.0 mi Calm Calm - 0.10 in Rain Rain
12:15 PM 50.9 °F - 50.5 °F 99% 30.00 in 4.0 mi Calm Calm - 0.02 in Rain Rain
12:35 PM 51.1 °F - 50.9 °F 99% 30.00 in 2.5 mi Calm Calm - 0.06 in Rain Heavy Rain
12:55 PM 51.1 °F - 50.9 °F 99% 30.00 in 2.5 mi Calm Calm - 0.10 in Rain Rain
1:15 PM 51.3 °F - 50.9 °F 99% 30.00 in 5.0 mi Calm Calm - 0.02 in Rain Rain
1:35 PM 51.1 °F - 50.9 °F 99% 29.98 in 7.0 mi SE 3.5 mph - 0.04 in Rain Rain
1:55 PM 51.1 °F - 50.9 °F 99% 29.98 in 5.0 mi Calm Calm - 0.07 in Rain Rain
2:15 PM 51.6 °F - 51.1 °F 98% 29.99 in 7.0 mi Calm Calm - 0.01 in Rain Rain
2:35 PM 51.4 °F - 51.1 °F 99% 29.99 in 4.0 mi Calm Calm - 0.06 in Rain Heavy Rain
2:55 PM 51.6 °F - 51.3 °F 99% 29.99 in 5.0 mi Calm Calm - 0.08 in Rain Rain
3:15 PM 51.8 °F - 51.6 °F 99% 29.99 in 7.0 mi NNW 4.6 mph - 0.01 in Rain Rain
3:35 PM 51.4 °F - 51.3 °F 99% 29.99 in 3.0 mi NNW 4.6 mph - 0.01 in Rain Rain
3:55 PM 50.9 °F - 50.7 °F 99% 29.99 in 5.0 mi NNW 8.1 mph - 0.03 in Rain Rain
4:15 PM 49.8 °F - 49.3 °F 98% 30.01 in 5.0 mi NNW 8.1 mph - 0.01 in Rain Rain
4:35 PM 49.1 °F - 48.4 °F 97% 29.99 in 10.0 mi NW 6.9 mph - 0.01 in Rain Rain
4:55 PM 48.6 °F - 48.2 °F 99% 30.01 in 7.0 mi NNW 5.8 mph - 0.02 in Rain Light Rain
5:15 PM 48.0 °F - 47.7 °F 99% 30.02 in 4.0 mi North 8.1 mph - 0.01 in Rain Rain
5:35 PM 46.6 °F - 46.0 °F 98% 30.03 in 5.0 mi NNW 9.2 mph - 0.03 in Rain Rain
5:55 PM 45.7 °F 41.5 °F 45.1 °F 98% 30.03 in 5.0 mi North 8.1 mph - 0.03 in   Drizzle
6:15 PM 45.1 °F 40.8 °F 44.6 °F 98% 30.03 in 5.0 mi North 8.1 mph - N/A   Drizzle
6:35 PM 44.8 °F 40.4 °F 44.6 °F 99% 30.04 in 5.0 mi NNW 8.1 mph - 0.01 in Rain Rain
6:55 PM 44.6 °F 41.4 °F 44.1 °F 98% 30.02 in 10.0 mi NNE 5.8 mph - 0.02 in Rain Rain
7:15 PM 44.2 °F 41.8 °F 43.9 °F 99% 30.05 in 10.0 mi NW 4.6 mph - N/A Rain Rain
7:35 PM 44.1 °F 41.5 °F 43.7 °F 99% 30.04 in 10.0 mi NNW 4.6 mph - 0.01 in Rain Rain
7:55 PM 44.1 °F 42.5 °F 43.7 °F 99% 30.05 in 10.0 mi NNW 3.5 mph - 0.03 in Rain Rain
8:15 PM 43.7 °F 42.1 °F 43.3 °F 99% 30.05 in 10.0 mi NNW 3.5 mph - 0.01 in Rain Light Rain
8:35 PM 43.7 °F 42.1 °F 43.2 °F 98% 30.05 in 10.0 mi North 3.5 mph - 0.01 in Rain Rain
8:55 PM 43.5 °F 41.9 °F 43.2 °F 99% 30.04 in 10.0 mi North 3.5 mph - 0.02 in Rain Light Rain
9:15 PM 43.2 °F 37.4 °F 43.0 °F 99% 30.05 in 10.0 mi NNW 10.4 mph - N/A Rain Light Rain
9:35 PM 42.4 °F 36.5 °F 42.1 °F 99% 30.06 in 10.0 mi NNW 10.4 mph 16.1 mph N/A   Overcast
9:55 PM 41.9 °F 35.4 °F 41.5 °F 99% 30.07 in 1.0 mi NNW 11.5 mph 17.3 mph N/A   Overcast
10:15 PM 40.6 °F 34.3 °F 40.6 °F 100% 30.09 in 3.0 mi NNW 10.4 mph 19.6 mph N/A   Overcast
10:35 PM 39.7 °F 33.7 °F 39.6 °F 99% 30.08 in 5.0 mi North 9.2 mph - N/A   Overcast
10:55 PM 39.4 °F 32.7 °F 39.2 °F 99% 30.09 in 5.0 mi NNW 10.4 mph - N/A   Overcast
11:15 PM 39.2 °F 32.5 °F 38.7 °F 98% 30.10 in 7.0 mi NNW 10.4 mph - N/A   Overcast
11:35 PM 38.8 °F 33.8 °F 38.5 °F 99% 30.10 in 5.0 mi NNW 6.9 mph - N/A   Overcast
11:55 PM 38.5 °F 32.7 °F 37.9 °F 98% 30.11 in 7.0 mi NNW 8.1 mph - N/A   Overcast